TimeAKDT,TemperatureF,Dew PointF,Humidity,Sea Level PressureIn,VisibilityMPH,Wind Direction,Wind SpeedMPH,Gust SpeedMPH,PrecipitationIn,Events,Conditions,WindDirDegrees,DateUTC
12:16 AM,50.0,46.4,87,29.52,10.0,Calm,Calm,-,N/A,,Mostly Cloudy,0,2013-08-24 08:16:00
12:36 AM,48.2,44.6,87,29.52,10.0,NE,4.6,-,N/A,,Overcast,50,2013-08-24 08:36:00
12:56 AM,50.0,46.4,87,29.52,10.0,ENE,3.5,-,N/A,,Partly Cloudy,70,2013-08-24 08:56:00
1:16 AM,50.0,46.4,87,29.52,10.0,ENE,3.5,-,N/A,,Partly Cloudy,60,2013-08-24 09:16:00
1:36 AM,48.2,44.6,87,29.51,10.0,East,3.5,-,N/A,,Partly Cloudy,100,2013-08-24 09:36:00
1:56 AM,48.2,46.4,93,29.51,10.0,Calm,Calm,-,N/A,,Clear,0,2013-08-24 09:56:00
2:16 AM,48.2,46.4,93,29.51,10.0,South,3.5,-,N/A,,Scattered Clouds,180,2013-08-24 10:16:00
2:36 AM,50.0,46.4,87,29.51,10.0,Calm,Calm,-,N/A,,Scattered Clouds,0,2013-08-24 10:36:00
2:56 AM,50.0,46.4,87,29.51,10.0,Calm,Calm,-,N/A,,Mostly Cloudy,0,2013-08-24 10:56:00
3:16 AM,48.2,46.4,93,29.51,10.0,Calm,Calm,-,N/A,,Partly Cloudy,0,2013-08-24 11:16:00
3:36 AM,48.2,44.6,87,29.51,10.0,East,3.5,-,N/A,,Scattered Clouds,90,2013-08-24 11:36:00
3:56 AM,48.2,46.4,93,29.51,10.0,Calm,Calm,-,N/A,,Partly Cloudy,0,2013-08-24 11:56:00
4:16 AM,48.2,46.4,93,29.51,10.0,Calm,Calm,-,N/A,,Clear,0,2013-08-24 12:16:00
4:36 AM,48.2,46.4,93,29.51,10.0,Calm,Calm,-,N/A,,Clear,0,2013-08-24 12:36:00
4:56 AM,48.2,44.6,87,29.51,10.0,Calm,Calm,-,N/A,,Partly Cloudy,0,2013-08-24 12:56:00
5:16 AM,48.2,44.6,87,29.51,10.0,Calm,Calm,-,N/A,,Scattered Clouds,0,2013-08-24 13:16:00
5:36 AM,48.2,44.6,87,29.51,10.0,Calm,Calm,-,N/A,,Mostly Cloudy,0,2013-08-24 13:36:00
5:56 AM,46.4,44.6,93,29.52,10.0,ENE,3.5,-,N/A,,Partly Cloudy,60,2013-08-24 13:56:00
6:16 AM,48.2,46.4,93,29.52,10.0,Calm,Calm,-,N/A,,Mostly Cloudy,0,2013-08-24 14:16:00
6:36 AM,48.2,46.4,93,29.52,10.0,Calm,Calm,-,N/A,,Mostly Cloudy,0,2013-08-24 14:36:00
6:56 AM,46.4,44.6,93,29.52,10.0,WSW,4.6,-,N/A,,Mostly Cloudy,250,2013-08-24 14:56:00
7:02 AM,46.4,44.6,93,29.53,0.2,SSW,3.5,-,N/A,Fog,Fog,200,2013-08-24 15:02:00
7:16 AM,46.4,42.8,87,29.53,0.2,Calm,Calm,-,N/A,,Mostly Cloudy,0,2013-08-24 15:16:00
7:27 AM,48.2,44.6,87,29.53,0.2,Calm,Calm,-,N/A,Fog,Fog,0,2013-08-24 15:27:00
7:36 AM,46.4,44.6,93,29.53,0.2,Calm,Calm,-,N/A,,Mostly Cloudy,0,2013-08-24 15:36:00
7:56 AM,48.2,44.6,87,29.54,10.0,Calm,Calm,-,N/A,,Mostly Cloudy,0,2013-08-24 15:56:00
8:16 AM,48.2,46.4,93,29.54,10.0,Calm,Calm,-,N/A,,Mostly Cloudy,0,2013-08-24 16:16:00
8:36 AM,48.2,46.4,93,29.54,10.0,Calm,Calm,-,N/A,,Mostly Cloudy,0,2013-08-24 16:36:00
8:56 AM,48.2,46.4,93,29.54,10.0,South,5.8,-,N/A,,Mostly Cloudy,180,2013-08-24 16:56:00
9:16 AM,50.0,48.2,94,29.54,10.0,West,5.8,-,N/A,,Mostly Cloudy,280,2013-08-24 17:16:00
9:36 AM,50.0,48.2,94,29.54,10.0,Calm,Calm,-,N/A,,Mostly Cloudy,0,2013-08-24 17:36:00
9:56 AM,53.6,48.2,82,29.54,10.0,West,4.6,-,N/A,,Mostly Cloudy,270,2013-08-24 17:56:00
10:16 AM,57.2,48.2,72,29.54,10.0,WNW,3.5,-,N/A,,Mostly Cloudy,290,2013-08-24 18:16:00
10:36 AM,57.2,48.2,72,29.54,10.0,West,6.9,-,N/A,,Mostly Cloudy,260,2013-08-24 18:36:00
10:56 AM,60.8,48.2,63,29.54,10.0,West,4.6,-,N/A,,Scattered Clouds,280,2013-08-24 18:56:00
11:16 AM,60.8,50.0,68,29.55,10.0,NW,4.6,-,N/A,,Scattered Clouds,310,2013-08-24 19:16:00
11:36 AM,66.2,44.6,46,29.54,10.0,East,15.0,29.9,N/A,,Scattered Clouds,100,2013-08-24 19:36:00
11:56 AM,66.2,44.6,46,29.54,10.0,East,15.0,21.9,N/A,,Scattered Clouds,100,2013-08-24 19:56:00
12:16 PM,68.0,42.8,40,29.54,10.0,East,19.6,29.9,N/A,,Scattered Clouds,90,2013-08-24 20:16:00
12:36 PM,66.2,42.8,43,29.55,10.0,East,9.2,32.2,N/A,,Scattered Clouds,90,2013-08-24 20:36:00
12:56 PM,66.2,42.8,43,29.55,10.0,East,21.9,31.1,N/A,,Mostly Cloudy,90,2013-08-24 20:56:00
1:16 PM,66.2,42.8,43,29.55,10.0,East,17.3,24.2,N/A,,Mostly Cloudy,100,2013-08-24 21:16:00
1:36 PM,66.2,42.8,43,29.56,10.0,East,13.8,28.8,N/A,,Mostly Cloudy,80,2013-08-24 21:36:00
1:56 PM,66.2,42.8,43,29.56,10.0,ENE,17.3,25.3,N/A,,Mostly Cloudy,60,2013-08-24 21:56:00
2:16 PM,66.2,41.0,40,29.56,10.0,NNE,5.8,-,N/A,,Mostly Cloudy,30,2013-08-24 22:16:00
2:36 PM,66.2,42.8,43,29.56,10.0,ENE,6.9,20.7,N/A,,Mostly Cloudy,70,2013-08-24 22:36:00
2:56 PM,68.0,42.8,40,29.57,10.0,East,11.5,29.9,N/A,,Mostly Cloudy,100,2013-08-24 22:56:00
3:16 PM,68.0,42.8,40,29.57,10.0,ESE,12.7,29.9,N/A,,Mostly Cloudy,110,2013-08-24 23:16:00
3:36 PM,66.2,42.8,43,29.57,10.0,East,15.0,27.6,N/A,,Mostly Cloudy,80,2013-08-24 23:36:00
3:56 PM,69.8,42.8,38,29.58,10.0,ESE,12.7,23.0,N/A,,Mostly Cloudy,110,2013-08-24 23:56:00
4:16 PM,69.8,41.0,35,29.58,10.0,East,18.4,24.2,N/A,,Mostly Cloudy,90,2013-08-25 00:16:00
4:36 PM,68.0,39.2,35,29.58,10.0,East,15.0,21.9,N/A,,Mostly Cloudy,90,2013-08-25 00:36:00
4:56 PM,69.8,41.0,35,29.58,10.0,East,12.7,23.0,N/A,,Mostly Cloudy,80,2013-08-25 00:56:00
5:16 PM,68.0,42.8,40,29.59,10.0,NNE,11.5,18.4,N/A,,Mostly Cloudy,30,2013-08-25 01:16:00
5:36 PM,66.2,39.2,37,29.59,10.0,East,16.1,23.0,N/A,,Mostly Cloudy,90,2013-08-25 01:36:00
5:56 PM,66.2,39.2,37,29.60,10.0,NNE,8.1,-,N/A,,Mostly Cloudy,20,2013-08-25 01:56:00
6:16 PM,68.0,39.2,35,29.59,10.0,ENE,13.8,18.4,N/A,,Mostly Cloudy,60,2013-08-25 02:16:00
6:36 PM,68.0,39.2,35,29.59,10.0,NE,13.8,18.4,N/A,,Mostly Cloudy,50,2013-08-25 02:36:00
6:56 PM,68.0,39.2,35,29.59,10.0,North,16.1,24.2,N/A,,Mostly Cloudy,10,2013-08-25 02:56:00
7:16 PM,68.0,37.4,33,29.59,10.0,North,17.3,26.5,N/A,,Mostly Cloudy,10,2013-08-25 03:16:00
7:36 PM,66.2,37.4,35,29.59,10.0,NNE,15.0,25.3,N/A,,Mostly Cloudy,20,2013-08-25 03:36:00
7:56 PM,66.2,39.2,37,29.59,10.0,NNE,20.7,35.7,N/A,,Mostly Cloudy,20,2013-08-25 03:56:00
8:16 PM,66.2,37.4,35,29.60,10.0,NNE,16.1,38.0,N/A,,Mostly Cloudy,30,2013-08-25 04:16:00
8:36 PM,66.2,37.4,35,29.59,10.0,North,23.0,39.1,N/A,,Mostly Cloudy,10,2013-08-25 04:36:00
8:56 PM,66.2,37.4,35,29.60,10.0,North,18.4,35.7,N/A,,Mostly Cloudy,360,2013-08-25 04:56:00
9:16 PM,66.2,37.4,35,29.60,10.0,North,21.9,42.6,N/A,,Mostly Cloudy,360,2013-08-25 05:16:00
9:36 PM,64.4,37.4,37,29.61,10.0,North,20.7,31.1,N/A,,Mostly Cloudy,360,2013-08-25 05:36:00
9:56 PM,64.4,37.4,37,29.63,10.0,NE,8.1,-,N/A,,Scattered Clouds,50,2013-08-25 05:56:00
10:16 PM,64.4,37.4,37,29.63,10.0,NE,16.1,27.6,N/A,,Clear,40,2013-08-25 06:16:00
10:36 PM,64.4,35.6,34,29.63,10.0,East,20.7,29.9,N/A,,Clear,80,2013-08-25 06:36:00
10:56 PM,64.4,35.6,34,29.65,10.0,NNE,5.8,17.3,N/A,,Clear,30,2013-08-25 06:56:00
11:16 PM,64.4,35.6,34,29.65,10.0,East,3.5,24.2,N/A,,Clear,80,2013-08-25 07:16:00
11:36 PM,64.4,35.6,34,29.64,10.0,NNE,13.8,28.8,N/A,,Clear,30,2013-08-25 07:36:00
11:56 PM,64.4,35.6,34,29.64,10.0,NE,9.2,20.7,N/A,,Clear,40,2013-08-25 07:56:00